Location: Haskovo
(41.9227°N, 25.5707°E)
Time: 20:59:24
(UTC+03:00)

ISS - Pass Details

Date: 19 May 2025
Orbit: 415 x 417 km, 51.6° (Epoch: 16 June)

Event Time Altitude Azimuth Distance (km) Brightness Sun altitude
Rises 23:18:09 0° 308° (NW) 2,360 1.2 -22.5°
Reaches altitude 10° 23:20:22 10° 317° (NW) 1,494 0.1 -22.7°
Enters shadow 23:23:23 35° 21° (NNE) 698 -2.4 -23.0°
